Home   Weather   Osøyro   Past weeks

Flag for Norway Past Weather in Osøyro, Norway — Yesterday and Last 2 Weeks

Now
52 °F

Passing clouds.


Feels Like: 45 °F
Forecast: 47 / 49 °F
Wind: 24 mph from Southwest

Location: Bergen / Flesland

Current Time: Dec 8, 2016 at 3:25:29 am

Latest Report: Dec 8, 2016 at 2:50 am


Visibility: N/A

Pressure: 29.62 "Hg

Humidity: 88%

Dew Point: 48 °F

Location of OsøyroLocation

Past Weather in Osøyro — Graph

°F

Osøyro Temperature Yesterday

Maximum temperature yesterday: 50 °F (at 11:20 pm)
Minimum temperature yesterday: 39 °F (at 3:50 am)
Average temperature yesterday: 45 °F

High & Low Weather Summary for the Past Weeks

 TemperatureHumidityPressure
High52 °F (Dec 8, 1:50 am)100% (Nov 23, 3:50 am)30.51 "Hg (Nov 23, 3:50 am)
Low27 °F (Nov 28, 7:50 am)60% (Nov 28, 1:50 pm)29.59 "Hg (Dec 8, 12:50 am)
Average40 °F89%30.12 "Hg
* Reported Nov 23 1:50 am — Dec 8 1:50 am, Osøyro, Weather by CustomWeather, © 2016

Note: Actual official high and low records may vary slightly from our data, if they occured in-between our weather recording intervals... More about our weather records

Advertising

Osøyro Weather History for the Previous 24 Hours

Scroll right to see more
 ConditionsComfort  
Time TempWeatherWind HumidityBarometerVisibility
1:50 am
Thu, Dec 8
52 °FPassing clouds.22 mph88%29.62 "HgN/A
12:50 am50 °FPartly cloudy.17 mph100%29.59 "Hg6 mi
12:20 am50 °FPartly cloudy.17 mph94%29.62 "Hg5 mi
11:50 pm
Wed, Dec 7
50 °FPartly cloudy.16 mph94%29.62 "Hg4 mi
11:20 pm50 °FPartly cloudy.15 mph94%29.62 "Hg6 mi
10:50 pm48 °FPartly cloudy.17 mph100%29.65 "Hg5 mi
10:20 pm48 °FDrizzle. Light fog.17 mph100%29.65 "Hg4 mi
9:50 pm48 °FPartly cloudy.17 mph100%29.65 "Hg2 mi
9:20 pm48 °FPartly cloudy.17 mph100%29.68 "Hg5 mi
8:50 pm48 °FDrizzle. Fog.15 mph100%29.68 "Hg3 mi
8:20 pm48 °FLight rain. Fog.16 mph100%29.68 "Hg3 mi
7:50 pm48 °FDrizzle. Fog.17 mph100%29.71 "Hg2 mi
7:20 pm48 °FDrizzle. Fog.16 mph94%29.71 "Hg2 mi
6:50 pm48 °FPartly cloudy.13 mph94%29.71 "Hg3 mi
6:20 pm48 °FPartly cloudy.14 mph94%29.68 "Hg3 mi
5:50 pm48 °FPartly cloudy.15 mph94%29.71 "Hg2 mi
5:20 pm48 °FDrizzle. Fog.14 mph94%29.71 "Hg2 mi
4:50 pm46 °FDrizzle. Fog.14 mph100%29.71 "Hg2 mi
4:20 pm46 °FDrizzle. Fog.14 mph100%29.74 "Hg2 mi
3:50 pm46 °FPartly cloudy.16 mph93%29.74 "Hg2 mi
3:20 pm46 °FRain. Partly sunny.15 mph93%29.74 "Hg4 mi
2:50 pm46 °FRain. Partly sunny.16 mph93%29.77 "Hg4 mi
2:20 pm46 °FLight rain. Partly sunny.15 mph93%29.77 "Hg4 mi
1:50 pm46 °FRain. Partly sunny.15 mph93%29.77 "Hg4 mi
1:20 pm46 °FLight rain. Partly sunny.16 mph93%29.77 "HgN/A
12:50 pm45 °FDrizzle. Broken clouds.14 mph100%29.80 "Hg5 mi
12:20 pm45 °FLight rain. Broken clouds.16 mph100%29.80 "Hg4 mi
11:50 am45 °FDrizzle. Fog.17 mph93%29.80 "Hg3 mi
11:20 am45 °FDrizzle. Fog.15 mph93%29.83 "Hg3 mi
10:50 am45 °FDrizzle. Fog.18 mph93%29.83 "Hg3 mi
10:20 am45 °FRain. Broken clouds.22 mph93%29.86 "Hg4 mi
9:50 am45 °FLight rain. Partly sunny.21 mph93%29.86 "Hg6 mi
9:20 am45 °FLight rain. Partly cloudy.20 mph93%29.86 "HgN/A
8:50 am43 °FRain. Passing clouds.21 mph93%29.89 "Hg5 mi
8:20 am43 °FRain. Passing clouds.20 mph93%29.89 "Hg6 mi
7:50 am41 °FRain. Passing clouds.18 mph93%29.89 "HgN/A
7:20 am41 °FRain. Passing clouds.16 mph93%29.92 "HgN/A
6:50 am41 °FRain. Passing clouds.17 mph87%29.92 "HgN/A
6:20 am39 °FRain. Passing clouds.18 mph93%29.95 "HgN/A
5:50 am39 °FRain. Passing clouds.16 mph93%29.98 "HgN/A
4:50 am39 °FRain. Passing clouds.17 mph87%30.04 "HgN/A
3:50 am39 °FLight rain. Partly cloudy.16 mph87%30.07 "HgN/A
Weather by CustomWeather, © 2016

See weather overviewHow to use our weather pages